Zurück zum Katalog

STARLINK-31800

AktivKommunikationVLEO
NORAD 59643·PAYLOAD·🇺🇸 United States

Gestartet May 3, 2024 von Cape Canaveral Space Force Station

Loading…

Nächste Überflüge (nächste 24 Stunden)

TLE

AktuellSource: CelesTrak SupGP

Epoche: Sep 14, 2026, 22:13 UTC

1 59643C 24082N   26257.92618056 -.00028727  00000+0 -10406-2 0  2579
2 59643  43.0006 151.2959 0001342 269.4442 347.4289 15.27588708    14

Verfolge STARLINK-31800 in Echtzeit mit AllMySat

Download on the App Store